Location: Ottawa
(45.4167°N, 75.7000°W)
Time: 09:48:36
(UTC-04:00)

ISS - Pass Details

Date: 11 October 2017
Orbit: 401 x 408 km, 51.6° (Epoch: 23 October)

Event Time Altitude Azimuth Distance (km) Brightness Sun altitude
Rises 18:48:52 0° 298° (WNW) 2,326 1.1 -5.2°
Reaches altitude 10° 18:51:02 10° 306° (NW) 1,466 -0.2 -5.5°
Maximum altitude 18:54:09 40° 18° (NNE) 617 -3.1 -6.1°
Drops below altitude 10° 18:57:17 10° 90° (E) 1,466 -1.7 -6.6°
Enters shadow 18:57:33 - 91° (E) 1,565 -1.5 -6.7°
